TimeEST,TemperatureF,Dew PointF,Humidity,Sea Level PressureIn,VisibilityMPH,Wind Direction,Wind SpeedMPH,Gust SpeedMPH,PrecipitationIn,Events,Conditions,WindDirDegrees,DateUTC
12:27 AM,35.6,32.0,87,30.26,10.0,Calm,Calm,-,N/A,,Overcast,0,2014-01-10 05:27:00
12:53 AM,35.1,32.0,89,30.26,10.0,Calm,Calm,-,N/A,,Overcast,0,2014-01-10 05:53:00
1:53 AM,36.0,33.1,89,30.25,10.0,Calm,Calm,-,N/A,,Overcast,0,2014-01-10 06:53:00
2:53 AM,36.0,33.1,89,30.26,10.0,Calm,Calm,-,N/A,,Overcast,0,2014-01-10 07:53:00
3:31 AM,37.4,33.8,87,30.24,10.0,Calm,Calm,-,N/A,,Overcast,0,2014-01-10 08:31:00
3:53 AM,37.0,34.0,89,30.25,10.0,Calm,Calm,-,N/A,,Overcast,0,2014-01-10 08:53:00
4:53 AM,37.0,34.0,89,30.23,10.0,Calm,Calm,-,N/A,,Overcast,0,2014-01-10 09:53:00
5:53 AM,37.0,35.1,93,30.22,9.0,Calm,Calm,-,N/A,,Overcast,0,2014-01-10 10:53:00
6:53 AM,37.0,35.1,93,30.21,7.0,Calm,Calm,-,N/A,,Overcast,0,2014-01-10 11:53:00
7:53 AM,37.9,36.0,93,30.21,8.0,Calm,Calm,-,N/A,,Overcast,0,2014-01-10 12:53:00
8:53 AM,39.9,37.9,93,30.21,7.0,SE,3.5,-,N/A,,Overcast,130,2014-01-10 13:53:00
9:50 AM,44.6,42.8,93,30.19,9.0,SE,4.6,-,N/A,,Overcast,140,2014-01-10 14:50:00
9:53 AM,45.0,42.1,90,30.20,9.0,SSE,4.6,-,N/A,,Overcast,150,2014-01-10 14:53:00
10:16 AM,46.4,42.8,87,30.18,7.0,SSE,5.8,-,N/A,,Overcast,160,2014-01-10 15:16:00
10:53 AM,46.0,44.1,93,30.18,8.0,SSE,6.9,-,N/A,,Overcast,160,2014-01-10 15:53:00
11:53 AM,46.9,45.0,93,30.13,9.0,SE,6.9,-,N/A,,Overcast,130,2014-01-10 16:53:00
12:32 PM,48.2,44.6,87,30.10,10.0,SSE,8.1,-,N/A,,Overcast,150,2014-01-10 17:32:00
12:53 PM,50.0,45.0,83,30.09,10.0,SSE,9.2,-,N/A,,Overcast,160,2014-01-10 17:53:00
1:14 PM,50.0,46.4,87,30.06,10.0,SSE,5.8,-,N/A,,Overcast,150,2014-01-10 18:14:00
1:53 PM,51.1,46.0,83,30.03,10.0,SSE,5.8,-,N/A,,Overcast,150,2014-01-10 18:53:00
2:22 PM,51.8,46.4,82,30.01,10.0,SE,6.9,-,N/A,,Overcast,140,2014-01-10 19:22:00
2:53 PM,52.0,46.0,80,29.99,10.0,SE,8.1,-,N/A,,Overcast,140,2014-01-10 19:53:00
3:45 PM,51.8,46.4,82,29.96,10.0,SE,8.1,-,N/A,,Overcast,140,2014-01-10 20:45:00
3:53 PM,52.0,46.9,83,29.96,10.0,SSE,6.9,-,N/A,,Overcast,150,2014-01-10 20:53:00
4:10 PM,51.8,46.4,82,29.95,10.0,SSE,9.2,-,N/A,,Overcast,150,2014-01-10 21:10:00
4:53 PM,52.0,46.9,83,29.94,10.0,SE,8.1,-,N/A,,Overcast,140,2014-01-10 21:53:00
5:53 PM,52.0,46.9,83,29.90,10.0,SE,5.8,-,N/A,,Overcast,130,2014-01-10 22:53:00
6:53 PM,51.1,46.9,86,29.90,10.0,SSE,3.5,-,N/A,,Overcast,160,2014-01-10 23:53:00
7:53 PM,52.0,46.0,80,29.87,10.0,SSE,5.8,-,N/A,,Overcast,150,2014-01-11 00:53:00
8:53 PM,51.1,46.0,83,29.83,10.0,SSE,8.1,-,N/A,,Overcast,160,2014-01-11 01:53:00
9:19 PM,51.8,46.4,82,29.79,10.0,SSE,9.2,-,N/A,,Mostly Cloudy,160,2014-01-11 02:19:00
9:53 PM,54.0,48.0,80,29.76,10.0,SSE,11.5,20.7,N/A,,Mostly Cloudy,160,2014-01-11 02:53:00
10:23 PM,53.6,48.2,82,29.76,10.0,South,11.5,17.3,N/A,,Overcast,180,2014-01-11 03:23:00
10:46 PM,53.6,48.2,82,29.73,10.0,South,10.4,18.4,N/A,,Overcast,170,2014-01-11 03:46:00
10:53 PM,54.0,48.0,80,29.74,10.0,South,11.5,19.6,0.00,Rain,Light Rain,180,2014-01-11 03:53:00
11:34 PM,53.6,48.2,82,29.71,10.0,South,6.9,-,0.00,,Overcast,170,2014-01-11 04:34:00
11:53 PM,54.0,48.0,80,29.73,10.0,West,9.2,-,0.00,,Overcast,260,2014-01-11 04:53:00